Location: Southlake
(32.9412°N, 97.1342°W)
Time: 00:38:56
(UTC+00:00)

Hubble Space Telescope - Visible Passes

Search period start: 01 December 2023 00:00
Search period end: 11 December 2023 00:00
Orbit: 519 x 523 km, 28.5° (Epoch: 30 November)

Date Brightness Start Highest point End Pass type
(mag) Time Alt. Az. Time Alt. Az. Time Alt. Az.
01 Dec 1.9 00:52:08 10° WSW 00:55:49 35° S 00:57:24 25° SE visible
02 Dec 2.1 00:35:49 10° WSW 00:39:26 33° SSW 00:42:14 15° SE visible
03 Dec 2.3 00:19:28 10° WSW 00:23:01 30° SSW 00:26:33 10° SE visible
03 Dec 3.8 02:01:50 10° SW 02:02:10 11° SW 02:02:10 11° SW visible
04 Dec 2.6 00:03:09 10° WSW 00:06:35 27° SSW 00:10:00 10° SE visible
04 Dec 2.8 23:46:49 10° WSW 23:50:07 24° SSW 23:53:25 10° SE visible
